User: anonymous   Login
Location: Unspecified
(0.0000°N, 0.0000°E)
Time: 17:32:13
(UTC+00:00)
Language:

GONETS M 10 (M20) - Orbit

View from above orbital plane
View from above orbital plane
View from above satellite
View from above satellite

Ground track
Ground track

The orbit data is extracted from the following two-line orbital elements,

1 40063U 14036C   19016.75347434  .00000004  00000-0 -40129-4 0  9996
2 40063  82.5082 189.7279 0020697 287.7731  72.1082 12.42876668205997
Epoch (UTC): 16 January 2019 18:05:00
Eccentricity: 0.0020697
inclination: 82.5082°
perigee height: 1478 km
apogee height: 1511 km
right ascension of ascending node: 189.7279°
argument of perigee: 287.7731°
revolutions per day: 12.42876668
mean anomaly at epoch: 72.1082°
orbit number at epoch: 20599

The dashed part of the orbit path shows where the satellite is in the earth's shadow,  

DLR